timestamp,wind_dir_avg,wind_spd_max_dir,wind_spd_avg,wind_spd_gust,battery_voltage,lat,long
2018-06-25 00:00:00+00:00,313.0,312.0,1.3,1.36,,47.59359,-54.27349
2018-06-25 00:10:00+00:00,306.0,304.0,0.85,0.92,,47.59359,-54.27349
2018-06-25 00:20:00+00:00,295.0,312.0,0.66,0.77,,47.59359,-54.27349
2018-06-25 00:30:00+00:00,178.0,178.0,1.76,1.89,,47.59359,-54.27349
2018-06-25 00:40:00+00:00,170.0,177.0,1.2,1.4,,47.59359,-54.27349
2018-06-25 00:50:00+00:00,151.0,153.0,0.65,0.89,,47.59359,-54.27349
2018-06-25 01:00:00+00:00,22.0,20.0,0.29,0.52,,47.59359,-54.27349
2018-06-25 01:10:00+00:00,132.0,173.0,0.14,0.31,,47.59359,-54.27349
2018-06-25 01:20:00+00:00,2.0,0.0,0.58,0.71,,47.59359,-54.27349
2018-06-25 01:30:00+00:00,85.0,81.0,0.94,1.03,,47.59359,-54.27349
2018-06-25 01:40:00+00:00,47.0,48.0,1.03,1.11,,47.59359,-54.27349
2018-06-25 01:50:00+00:00,34.0,34.0,0.96,1.03,,47.59359,-54.27349
2018-06-25 02:00:00+00:00,43.0,42.0,1.74,1.98,,47.59359,-54.27349
2018-06-25 02:10:00+00:00,51.0,54.0,2.35,2.55,,47.59359,-54.27349
2018-06-25 02:20:00+00:00,47.0,46.0,3.3,3.49,,47.59359,-54.27349
2018-06-25 02:30:00+00:00,49.0,47.0,3.21,3.63,,47.59359,-54.27349
2018-06-25 02:40:00+00:00,53.0,57.0,4.91,5.45,,47.59359,-54.27349
2018-06-25 02:50:00+00:00,62.0,61.0,6.34,7.33,,47.59359,-54.27349
2018-06-25 03:00:00+00:00,65.0,66.0,6.91,7.64,,47.59359,-54.27349
2018-06-25 03:10:00+00:00,65.0,66.0,7.16,7.87,,47.59359,-54.27349
2018-06-25 03:20:00+00:00,72.0,76.0,7.02,7.88,,47.59359,-54.27349
2018-06-25 03:30:00+00:00,71.0,72.0,7.3,7.99,,47.59359,-54.27349
2018-06-25 03:40:00+00:00,77.0,80.0,7.58,8.24,,47.59359,-54.27349
2018-06-25 03:50:00+00:00,73.0,73.0,6.96,7.63,,47.59359,-54.27349
2018-06-25 04:00:00+00:00,66.0,68.0,6.76,7.85,,47.59359,-54.27349
2018-06-25 04:10:00+00:00,74.0,80.0,5.83,6.98,,47.59359,-54.27349
2018-06-25 04:20:00+00:00,79.0,77.0,6.87,7.64,,47.59359,-54.27349
2018-06-25 04:30:00+00:00,85.0,86.0,6.28,7.22,,47.59359,-54.27349
2018-06-25 04:40:00+00:00,77.0,83.0,6.19,6.8,,47.59359,-54.27349
2018-06-25 04:50:00+00:00,72.0,67.0,6.0,6.5,,47.59359,-54.27349
2018-06-25 05:00:00+00:00,72.0,74.0,5.72,6.46,,47.59359,-54.27349
2018-06-25 05:10:00+00:00,76.0,73.0,6.17,7.44,,47.59359,-54.27349
2018-06-25 05:20:00+00:00,72.0,74.0,6.52,7.26,,47.59359,-54.27349
2018-06-25 05:30:00+00:00,68.0,65.0,7.43,8.29,,47.59359,-54.27349
2018-06-25 05:40:00+00:00,63.0,60.0,8.01,9.26,,47.59359,-54.27349
2018-06-25 05:50:00+00:00,51.0,55.0,7.51,8.38,,47.59359,-54.27349
2018-06-25 06:00:00+00:00,64.0,62.0,6.96,8.21,,47.59359,-54.27349
2018-06-25 06:10:00+00:00,64.0,64.0,7.92,8.66,,47.59359,-54.27349
2018-06-25 06:20:00+00:00,68.0,70.0,8.24,9.03,,47.59359,-54.27349
2018-06-25 06:30:00+00:00,69.0,71.0,7.7,8.69,,47.59359,-54.27349
2018-06-25 06:40:00+00:00,66.0,68.0,7.61,8.37,,47.59359,-54.27349
2018-06-25 06:50:00+00:00,67.0,71.0,6.68,7.33,,47.59359,-54.27349
2018-06-25 07:00:00+00:00,69.0,67.0,7.01,7.74,,47.59359,-54.27349
2018-06-25 07:10:00+00:00,61.0,60.0,7.39,8.52,,47.59359,-54.27349
2018-06-25 07:20:00+00:00,61.0,60.0,7.85,8.67,,47.59359,-54.27349
2018-06-25 07:30:00+00:00,57.0,53.0,8.91,9.8,,47.59359,-54.27349
2018-06-25 07:40:00+00:00,59.0,58.0,8.49,9.34,,47.59359,-54.27349
2018-06-25 07:50:00+00:00,57.0,57.0,8.4,9.1,,47.59359,-54.27349
2018-06-25 08:00:00+00:00,54.0,55.0,8.88,9.95,,47.59359,-54.27349
2018-06-25 08:10:00+00:00,54.0,53.0,8.58,9.56,,47.59359,-54.27349
2018-06-25 08:20:00+00:00,52.0,53.0,8.08,9.01,,47.59359,-54.27349
2018-06-25 08:30:00+00:00,55.0,55.0,7.51,8.19,,47.59359,-54.27349
2018-06-25 08:40:00+00:00,56.0,57.0,7.88,8.57,,47.59359,-54.27349
2018-06-25 08:50:00+00:00,56.0,60.0,7.09,7.78,,47.59359,-54.27349
2018-06-25 09:00:00+00:00,56.0,64.0,7.92,10.19,,47.59359,-54.27349
2018-06-25 09:10:00+00:00,58.0,60.0,6.78,8.01,,47.59359,-54.27349
2018-06-25 09:20:00+00:00,62.0,60.0,7.3,8.14,,47.59359,-54.27349
2018-06-25 09:30:00+00:00,65.0,73.0,7.65,8.75,,47.59359,-54.27349
2018-06-25 09:40:00+00:00,57.0,60.0,7.27,7.91,,47.59359,-54.27349
2018-06-25 09:50:00+00:00,52.0,54.0,6.86,7.81,,47.59359,-54.27349
2018-06-25 10:00:00+00:00,56.0,54.0,7.27,8.54,,47.59359,-54.27349
2018-06-25 10:10:00+00:00,57.0,56.0,7.18,8.08,,47.59359,-54.27349
2018-06-25 10:20:00+00:00,58.0,60.0,7.37,8.13,,47.59359,-54.27349
2018-06-25 10:30:00+00:00,58.0,57.0,8.34,8.92,,47.59359,-54.27349
2018-06-25 10:40:00+00:00,50.0,47.0,8.34,9.49,,47.59359,-54.27349
2018-06-25 10:50:00+00:00,49.0,48.0,8.64,10.03,,47.59359,-54.27349
2018-06-25 11:00:00+00:00,48.0,46.0,8.85,9.9,,47.59359,-54.27349
2018-06-25 11:10:00+00:00,54.0,53.0,9.31,10.32,,47.59359,-54.27349
2018-06-25 11:20:00+00:00,49.0,53.0,8.5,9.27,,47.59359,-54.27349
2018-06-25 11:30:00+00:00,53.0,51.0,8.38,9.33,,47.59359,-54.27349
2018-06-25 11:40:00+00:00,59.0,59.0,9.12,9.97,,47.59359,-54.27349
2018-06-25 11:50:00+00:00,59.0,62.0,8.63,9.43,,47.59359,-54.27349
2018-06-25 12:00:00+00:00,58.0,56.0,8.7,9.79,,47.59359,-54.27349
2018-06-25 12:10:00+00:00,49.0,48.0,7.87,8.76,,47.59359,-54.27349
2018-06-25 12:20:00+00:00,53.0,55.0,9.5,10.91,,47.59359,-54.27349
2018-06-25 12:30:00+00:00,51.0,50.0,10.42,11.89,,47.59359,-54.27349
2018-06-25 12:40:00+00:00,53.0,55.0,9.34,11.07,,47.59359,-54.27349
2018-06-25 12:50:00+00:00,53.0,53.0,9.54,10.64,,47.59359,-54.27349
2018-06-25 13:00:00+00:00,57.0,56.0,8.67,9.33,,47.59359,-54.27349
2018-06-25 13:10:00+00:00,54.0,54.0,9.86,11.68,,47.59359,-54.27349
2018-06-25 13:20:00+00:00,52.0,59.0,10.6,12.83,,47.59359,-54.27349
2018-06-25 13:30:00+00:00,57.0,56.0,9.37,10.87,,47.59359,-54.27349
2018-06-25 13:40:00+00:00,60.0,56.0,8.61,9.88,,47.59359,-54.27349
2018-06-25 13:50:00+00:00,68.0,69.0,8.36,9.43,,47.59359,-54.27349
2018-06-25 14:00:00+00:00,73.0,69.0,7.41,8.34,,47.59359,-54.27349
2018-06-25 14:10:00+00:00,76.0,81.0,8.02,9.67,,47.59359,-54.27349
2018-06-25 14:20:00+00:00,81.0,82.0,8.93,10.37,,47.59359,-54.27349
2018-06-25 14:30:00+00:00,82.0,82.0,8.83,10.44,,47.59359,-54.27349
2018-06-25 14:40:00+00:00,83.0,83.0,10.84,11.96,,47.59359,-54.27349
2018-06-25 14:50:00+00:00,84.0,83.0,11.13,12.91,,47.59359,-54.27349
2018-06-25 15:00:00+00:00,83.0,81.0,11.98,13.67,,47.59359,-54.27349
2018-06-25 15:10:00+00:00,81.0,80.0,10.52,13.57,,47.59359,-54.27349
2018-06-25 15:20:00+00:00,81.0,79.0,12.33,13.71,,47.59359,-54.27349
2018-06-25 15:30:00+00:00,80.0,83.0,11.58,12.59,,47.59359,-54.27349
2018-06-25 15:40:00+00:00,82.0,87.0,12.21,13.45,,47.59359,-54.27349
2018-06-25 15:50:00+00:00,82.0,89.0,11.11,13.06,,47.59359,-54.27349
2018-06-25 16:00:00+00:00,81.0,79.0,11.84,12.89,,47.59359,-54.27349
2018-06-25 16:10:00+00:00,82.0,85.0,10.5,11.78,,47.59359,-54.27349
2018-06-25 16:20:00+00:00,78.0,82.0,9.62,12.29,,47.59359,-54.27349
2018-06-25 16:30:00+00:00,78.0,83.0,11.36,13.38,,47.59359,-54.27349
2018-06-25 16:40:00+00:00,75.0,79.0,10.45,12.4,,47.59359,-54.27349
2018-06-25 16:50:00+00:00,72.0,68.0,10.52,13.02,,47.59359,-54.27349
2018-06-25 17:00:00+00:00,69.0,68.0,10.91,12.3,,47.59359,-54.27349
2018-06-25 17:10:00+00:00,74.0,71.0,9.87,11.55,,47.59359,-54.27349
2018-06-25 17:20:00+00:00,76.0,77.0,10.5,12.82,,47.59359,-54.27349
2018-06-25 17:30:00+00:00,77.0,74.0,12.26,14.26,,47.59359,-54.27349
2018-06-25 17:40:00+00:00,77.0,78.0,10.63,11.94,,47.59359,-54.27349
2018-06-25 17:50:00+00:00,75.0,80.0,10.83,11.91,,47.59359,-54.27349
2018-06-25 18:00:00+00:00,72.0,70.0,10.08,11.94,,47.59359,-54.27349
2018-06-25 18:10:00+00:00,66.0,70.0,11.31,13.12,,47.59359,-54.27349
2018-06-25 18:20:00+00:00,63.0,63.0,10.34,11.7,,47.59359,-54.27349
2018-06-25 18:30:00+00:00,67.0,59.0,10.69,12.08,,47.59359,-54.27349
2018-06-25 18:40:00+00:00,65.0,64.0,10.52,11.92,,47.59359,-54.27349
2018-06-25 18:50:00+00:00,58.0,56.0,11.6,12.91,,47.59359,-54.27349
2018-06-25 19:00:00+00:00,60.0,63.0,11.31,12.99,,47.59359,-54.27349
2018-06-25 19:10:00+00:00,65.0,59.0,10.52,11.86,,47.59359,-54.27349
2018-06-25 19:20:00+00:00,60.0,57.0,10.84,12.78,,47.59359,-54.27349
2018-06-25 19:30:00+00:00,61.0,58.0,9.56,10.58,,47.59359,-54.27349
2018-06-25 19:40:00+00:00,64.0,65.0,10.89,12.07,,47.59359,-54.27349
2018-06-25 19:50:00+00:00,61.0,62.0,11.51,13.7,,47.59359,-54.27349
2018-06-25 20:00:00+00:00,59.0,57.0,12.59,14.62,,47.59359,-54.27349
2018-06-25 20:10:00+00:00,60.0,57.0,10.43,11.94,,47.59359,-54.27349
2018-06-25 20:20:00+00:00,64.0,63.0,11.55,13.39,,47.59359,-54.27349
2018-06-25 20:30:00+00:00,74.0,73.0,11.51,12.84,,47.59359,-54.27349
2018-06-25 20:40:00+00:00,72.0,77.0,12.06,13.44,,47.59359,-54.27349
2018-06-25 20:50:00+00:00,73.0,68.0,11.5,13.07,,47.59359,-54.27349
2018-06-25 21:00:00+00:00,72.0,62.0,10.29,12.32,,47.59359,-54.27349
2018-06-25 21:10:00+00:00,73.0,67.0,10.64,12.09,,47.59359,-54.27349
2018-06-25 21:20:00+00:00,73.0,76.0,10.51,12.15,,47.59359,-54.27349
2018-06-25 21:30:00+00:00,71.0,67.0,12.76,14.61,,47.59359,-54.27349
2018-06-25 21:40:00+00:00,63.0,69.0,10.83,12.4,,47.59359,-54.27349
2018-06-25 21:50:00+00:00,60.0,60.0,10.03,11.85,,47.59359,-54.27349
2018-06-25 22:00:00+00:00,64.0,63.0,10.65,12.98,,47.59359,-54.27349
2018-06-25 22:10:00+00:00,66.0,67.0,10.71,12.08,,47.59359,-54.27349
2018-06-25 22:20:00+00:00,67.0,72.0,9.35,11.05,,47.59359,-54.27349
2018-06-25 22:30:00+00:00,73.0,74.0,10.01,11.52,,47.59359,-54.27349
2018-06-25 22:40:00+00:00,76.0,73.0,12.16,13.28,,47.59359,-54.27349
2018-06-25 22:50:00+00:00,79.0,80.0,11.52,13.81,,47.59359,-54.27349
2018-06-25 23:00:00+00:00,78.0,80.0,13.31,15.11,,47.59359,-54.27349
2018-06-25 23:10:00+00:00,75.0,76.0,10.76,12.12,,47.59359,-54.27349
2018-06-25 23:20:00+00:00,75.0,74.0,11.84,14.05,,47.59359,-54.27349
2018-06-25 23:30:00+00:00,73.0,73.0,14.3,15.48,,47.59359,-54.27349
2018-06-25 23:40:00+00:00,74.0,76.0,12.18,14.6,,47.59359,-54.27349
2018-06-25 23:50:00+00:00,74.0,81.0,14.1,16.04,,47.59359,-54.27349
